Simultaneous Nadir Overpasses (SNOs) Predictions

Prediction of SNOs between LANDSAT-8 and TERRA Satellite Orbit:

Table of predicted SNOs for the next 14.0 days since TLE Epoch: 3/1/2025
Index Date (LANDSAT-8) Time (LANDSAT-8) Lat,Lon (LANDSAT-8) SZA (LANDSAT-8 ) Date (TERRA) Time (TERRA) Lat,Lon (TERRA) SZA (TERRA ) Distance(km) Time Diff (sec)
1 03/10/2025 19:08:34 81.84, -43.03 89.86 03/10/2025 19:09:42 81.85, -42.84 89.92 3.00 68
2 03/10/2025 19:58:00 -81.84, 124.95 90.12 03/10/2025 19:59:01 -81.84, 125.00 90.08 0.75 61
3 03/10/2025 20:47:26 81.84, -67.32 89.88 03/10/2025 20:48:21 81.84, -67.42 89.90 1.56 55
4 03/10/2025 21:36:53 -81.84, 100.24 90.14 03/10/2025 21:37:40 -81.84, 100.42 90.10 2.97 47
5 03/10/2025 22:26:19 81.84, -92.04 89.86 03/10/2025 22:27:00 81.84, -91.99 89.88 0.70 41
6 03/10/2025 23:15:46 -81.84, 75.52 90.17 03/10/2025 23:16:20 -81.85, 75.42 90.16 1.62 34
7 03/11/2025 00:05:12 81.84,-116.75 89.83 03/11/2025 00:05:39 81.84,-116.57 89.87 2.94 27
8 03/11/2025 00:54:39 -81.84, 50.80 90.20 03/11/2025 00:54:59 -81.85, 50.85 90.18 0.79 20
9 03/11/2025 01:44:05 81.84,-141.47 89.81 03/11/2025 01:44:19 81.85,-141.57 89.80 1.65 14
10 03/11/2025 02:33:32 -81.84, 26.08 90.22 03/11/2025 02:33:38 -81.84, 26.27 90.20 2.92 6
11 03/11/2025 03:22:58 81.84,-166.19 89.78 03/11/2025 03:22:58 81.85,-166.15 89.79 0.80 0
12 03/11/2025 04:12:24 -81.84, 1.79 90.20 03/11/2025 04:12:17 -81.84, 1.69 90.21 1.63 7
13 03/11/2025 05:01:51 81.84, 169.09 89.75 03/11/2025 05:01:37 81.84, 169.27 89.77 2.94 14
14 03/11/2025 05:51:17 -81.84, -22.93 90.22 03/11/2025 05:50:56 -81.84, -22.89 90.23 0.66 21
15 03/11/2025 06:40:43 81.84, 144.80 89.78 03/11/2025 06:40:16 81.84, 144.69 89.75 1.62 27
16 03/11/2025 07:30:10 -81.84, -47.65 90.25 03/11/2025 07:29:35 -81.84, -47.47 90.25 2.85 35
17 03/11/2025 08:19:36 81.84, 120.07 89.76 03/11/2025 08:18:55 81.84, 120.11 89.74 0.68 41
18 03/11/2025 09:09:03 -81.84, -72.37 90.27 03/11/2025 09:08:15 -81.85, -72.47 90.31 1.72 48
19 03/11/2025 09:58:29 81.84, 95.35 89.73 03/11/2025 09:57:34 81.84, 95.53 89.72 2.90 55
20 03/11/2025 10:47:56 -81.84, -97.09 90.30 03/11/2025 10:46:54 -81.84, -97.06 90.33 0.61 62



Historial Predications of SNOs between LANDSAT-8 and TERRA
